Temp
27 28 28 28 29 29 30 29 31 30 30 30 29 29 29 30 26 25 28 32 33 32 32 36 31 32 35 36 37 36 36 38 39 37 37 36 36 40 44 47 48 50 51 53 53 53 52 53 53 54 55 56 57 58 58 57 58 59 59 59 60 61 62 62 61 60 61 60 60 60 59 59 58 58
27 27 27 27 28 29 29 29 30 30 30 28 29 29 29 28 28 27 26 29 33 34 33 33 35 32 33 34 35 35 36 39 39 37 36 36 36 41 44 45 47 48 50 51 52 52 53 52 52 52 53 55 56 57 58 57 57 58 58 60 60 60 61 62 61 61 60 60 60 60 59 58 58 58
27 26 26 27 27 28 28 29 29 29 29 29 28 28 29 28 29 29 27 26 32 35 35 34 32 31 32 36 37 37 37 39 40 38 37 36 38 40 41 43 45 47 48 49 51 52 53 53 52 52 53 53 55 56 56 56 56 56 57 58 59 59 60 60 60 60 59 59 59 59 58 57 57 58
26 25 26 26 27 28 27 27 28 28 28 29 28 28 28 28 29 28 28 27 27 34 34 36 38 38 37 37 36 36 37 39 40 38 38 37 39 38 37 40 43 44 46 48 49 51 51 52 52 52 52 53 54 54 55 55 56 56 56 57 58 57 58 58 59 59 59 58 59 58 57 57 57 57
25 25 25 26 26 27 27 28 28 28 28 28 28 28 27 28 28 27 27 26 27 32 33 35 36 37 35 36 35 36 35 35 36 38 36 35 35 36 36 36 39 42 44 46 47 49 50 51 52 52 52 52 52 53 54 53 53 54 55 55 57 57 57 56 57 58 58 58 58 57 57 56 56 56
26 25 25 25 25 26 26 27 27 27 28 28 28 28 28 27 29 28 27 27 27 27 32 32 36 36 36 34 37 34 36 34 34 34 36 36 34 35 35 35 36 40 42 44 46 47 49 50 51 51 51 51 51 51 52 52 53 54 54 53 54 56 57 57 57 57 57 58 57 56 56 56 55 55
25 25 24 25 25 27 26 26 26 27 27 28 27 28 28 28 28 29 28 27 27 27 29 32 32 34 35 34 35 34 34 35 34 34 35 36 36 35 34 34 35 39 42 44 45 46 47 48 49 50 51 51 50 51 51 51 51 52 53 53 52 53 53 55 56 56 56 57 57 56 55 55 55 55
24 24 24 24 25 25 24 25 25 26 26 26 27 27 28 28 28 29 29 29 28 28 27 30 31 32 33 34 36 35 33 33 33 33 35 33 34 34 34 34 34 37 41 43 44 45 46 47 48 49 50 50 50 50 50 50 50 50 50 51 52 52 52 53 54 55 56 57 56 56 55 55 54 54
24 24 24 24 25 24 24 24 24 25 25 26 26 26 27 27 28 29 29 29 29 28 27 28 31 31 32 33 35 35 33 34 34 32 32 33 33 33 33 33 34 37 40 41 42 43 44 45 47 48 49 50 50 50 50 50 50 49 49 49 50 51 51 51 52 52 53 53 53 55 56 55 55 54
24 24 24 24 24 24 23 23 24 24 24 25 25 24 25 26 27 27 28 29 28 28 28 28 28 31 30 31 32 34 33 31 32 34 33 31 31 31 31 33 34 34 34 34 37 40 41 43 45 46 47 49 49 50 49 49 49 48 47 48 48 49 50 51 51 51 51 51 52 53 54 56 55 54
23 24 24 24 24 23 23 23 23 23 24 24 24 24 25 26 26 26 26 27 27 27 27 28 29 29 30 30 30 33 32 31 32 32 32 32 32 30 31 32 33 32 33 35 38 38 38 40 41 43 45 47 48 49 49 49 48 47 46 46 47 48 49 50 50 50 50 50 50 51 51 52 54 54
22 23 23 23 23 23 23 23 23 24 24 25 24 26 26 26 25 25 25 25 26 26 26 26 27 28 28 29 29 30 28 29 31 30 29 29 32 32 30 31 32 32 32 31 32 36 38 39 40 42 43 44 46 47 48 47 46 45 45 46 47 47 48 49 50 49 49 49 49 49 49 49 51 54
21 21 22 22 22 23 25 27 27 27 27 25 24 25 27 25 25 25 24 24 24 25 26 26 28 27 27 28 28 28 28 27 29 32 29 29 32 32 32 32 32 33 32 31 32 32 33 32 33 35 36 39 42 44 45 46 45 45 46 46 46 47 47 48 49 49 48 48 48 48 48 48 49 50
20 21 21 22 24 24 25 25 26 27 28 28 27 25 26 25 24 24 24 24 24 24 24 25 26 25 25 27 28 28 29 31 30 29 29 29 31 32 31 33 33 31 31 30 30 32 34 33 32 33 34 37 39 40 42 43 45 45 46 46 46 46 47 47 48 48 48 48 48 47 48 48 48 48
19 20 21 21 21 21 21 21 23 24 25 25 26 26 27 27 25 23 23 23 24 24 24 25 26 25 26 28 30 30 30 31 30 30 30 30 30 29 28 27 32 32 32 29 29 31 34 34 32 33 33 35 36 39 40 43 45 45 46 46 46 46 46 46 46 47 47 47 47 47 47 47 47 47
19 19 19 19 19 18 18 19 19 20 22 23 23 24 25 25 27 27 24 22 21 22 21 22 23 25 25 27 29 30 31 30 31 30 30 30 30 29 28 29 29 31 33 29 29 30 33 33 32 33 33 34 35 37 40 43 44 45 46 46 46 46 46 46 46 46 47 47 47 46 46 46 46 46
17 17 16 16 17 17 20 19 18 18 18 20 22 23 24 24 25 25 26 27 24 23 21 20 20 22 24 24 26 30 31 33 30 31 30 30 30 30 30 30 32 32 30 30 29 30 32 31 30 32 34 35 35 36 40 42 43 45 45 45 45 45 46 46 46 46 46 46 46 46 46 46 46 45
16 16 15 15 15 17 17 17 18 18 18 18 19 19 20 20 22 24 25 25 26 26 23 21 19 22 24 23 25 27 29 28 27 29 29 31 30 29 29 32 34 34 32 29 28 29 29 30 30 30 34 36 35 36 38 41 43 44 45 45 45 45 45 45 45 45 46 46 46 46 46 46 45 45
16 16 15 15 15 16 16 17 18 18 18 18 17 17 18 19 20 21 21 22 23 23 24 24 23 24 25 25 26 26 28 28 28 30 30 31 32 32 34 33 33 34 32 31 30 27 33 31 29 30 34 34 35 36 38 41 42 43 44 44 45 45 45 45 45 45 45 46 46 46 45 45 46 45
16 16 16 15 15 16 16 19 22 21 20 18 16 16 17 17 19 20 24 26 27 26 26 26 25 26 27 29 28 29 29 30 30 31 31 31 29 28 28 27 30 31 31 31 30 29 31 31 29 31 34 32 33 35 35 39 41 42 43 44 44 45 45 45 45 45 45 45 45 45 45 45 45 45
16 16 16 16 16 16 16 19 22 23 23 18 17 16 16 17 18 19 22 26 28 28 29 29 30 30 31 31 32 32 33 31 30 29 27 26 28 27 25 26 28 28 32 30 31 31 30 31 29 31 32 30 32 33 35 36 39 42 42 43 44 44 45 45 45 45 45 45 45 45 45 45 45 44
16 17 18 18 17 16 17 21 23 24 23 19 19 18 17 17 17 18 21 22 23 27 28 29 29 29 30 30 31 31 31 31 30 25 22 24 25 23 25 25 27 29 32 31 31 28 29 32 31 28 28 27 29 32 33 35 37 40 41 42 43 43 44 45 45 45 45 45 45 45 45 45 45 44
15 16 17 19 20 20 21 24 25 26 24 21 20 19 18 17 17 18 19 19 19 20 20 21 23 24 26 26 25 25 29 30 29 27 25 25 24 22 24 24 26 26 28 33 33 28 28 31 28 28 23 26 26 30 32 34 35 36 37 38 40 42 43 44 44 45 45 45 45 45 45 45 44 42
14 15 15 18 22 23 24 25 26 26 26 22 21 20 18 17 17 21 20 20 20 20 21 21 22 22 24 24 25 25 24 25 25 26 26 25 24 22 22 24 25 23 27 33 33 31 31 32 28 31 31 27 25 21 28 30 32 33 35 36 35 39 41 42 42 44 44 45 45 45 45 44 44 41
13 14 15 16 20 23 24 25 26 26 26 26 22 21 19 20 21 24 20 21 24 22 22 21 22 22 22 22 23 22 23 23 24 25 26 26 26 25 24 24 25 25 29 33 35 31 30 30 29 27 28 29 29 24 18 27 29 31 33 35 35 35 36 37 38 40 42 44 45 45 45 44 44 42
16 16 17 18 20 24 25 25 26 26 26 26 24 23 26 28 28 25 24 23 22 22 21 20 19 19 18 18 19 20 21 23 24 25 25 26 26 27 26 25 23 23 26 33 37 33 31 30 30 28 27 27 26 29 22 19 24 29 31 33 35 35 35 34 35 36 38 40 42 43 44 44 44 44
16 18 18 19 22 24 25 25 26 27 27 26 25 27 28 28 29 28 24 22 20 18 17 16 15 16 16 16 17 19 19 21 23 24 25 25 26 27 28 29 29 28 30 32 33 33 32 31 33 30 28 27 26 27 25 22 19 24 26 30 32 34 35 34 34 34 36 37 39 42 43 44 44 44
18 18 18 19 23 24 25 26 27 27 27 25 27 28 28 28 27 23 21 19 17 17 15 14 14 14 15 16 16 17 18 20 21 23 23 24 25 26 26 28 28 28 29 30 31 32 32 31 32 33 32 30 26 25 23 26 23 24 24 28 29 31 33 34 34 34 34 35 36 38 38 39 41 41
19 22 25 26 26 26 26 27 27 26 25 25 26 26 27 26 22 20 18 17 16 14 13 13 14 14 15 17 18 20 20 21 22 21 22 23 23 24 25 26 27 27 29 29 30 31 31 31 31 32 32 31 30 28 29 26 22 22 25 24 22 27 31 33 34 33 34 34 34 35 37 38 38 39
25 25 25 26 26 25 24 21 20 19 20 24 26 26 25 21 19 17 15 14 13 12 12 13 13 14 16 17 19 20 20 19 19 20 19 20 20 20 21 21 23 25 26 28 29 30 31 31 31 31 31 31 32 30 30 28 23 23 25 26 26 28 30 32 32 33 34 33 34 34 35 37 38 38
19 20 21 21 23 23 24 24 24 23 23 20 19 18 17 16 15 15 14 13 13 13 13 14 15 16 17 19 19 18 19 18 19 21 20 19 18 19 20 20 20 22 25 27 29 30 31 31 32 32 29 30 31 31 31 31 28 22 23 26 27 22 25 31 32 32 33 34 34 34 34 35 36 37
20 20 20 20 18 17 17 17 17 17 16 16 16 15 15 15 16 17 19 20 17 17 17 17 17 18 18 17 18 18 18 18 19 20 19 18 18 19 20 19 19 21 23 25 27 29 31 31 31 32 32 31 29 30 32 31 30 28 23 26 27 29 30 28 30 31 33 33 33 32 33 34 34 35
18 16 15 14 14 13 12 11 11 11 11 11 13 13 14 14 15 15 15 14 15 16 16 16 16 16 17 17 18 17 17 18 18 20 19 20 19 20 20 19 20 20 21 22 25 28 30 31 32 32 32 32 32 32 30 28 29 30 24 24 26 27 29 30 31 31 33 31 30 31 31 33 34 35
13 12 10 10 9 8 7 7 8 9 10 10 11 12 15 14 14 14 15 16 16 17 17 17 17 17 17 17 18 17 17 18 19 20 21 19 21 20 20 19 20 22 23 23 24 26 28 29 30 30 31 31 33 33 32 30 29 30 26 25 26 26 29 30 31 31 32 31 30 29 29 30 33 34
9 6 4 4 4 5 5 5 6 8 9 9 9 10 10 11 12 14 14 15 16 17 17 17 18 18 18 17 18 17 18 18 19 19 21 21 21 20 20 20 20 22 22 23 24 26 28 28 28 27 27 26 25 26 31 33 32 31 27 25 26 27 28 29 30 30 31 31 31 29 28 29 30 32
3 2 1 1 2 3 3 5 6 6 6 6 6 7 8 9 11 12 13 15 16 16 16 17 17 18 18 18 18 18 18 19 18 19 19 20 20 21 21 22 22 23 24 24 25 27 28 27 26 24 22 22 22 22 25 31 32 33 28 25 26 26 28 28 29 30 30 29 30 29 27 26 28 30
-2 -1 -1 -0 1 2 2 3 3 4 4 4 5 6 6 7 9 11 13 15 15 17 17 18 18 19 19 19 18 18 18 18 17 18 19 20 21 22 22 23 24 25 25 26 27 27 27 26 26 25 23 22 20 20 24 27 27 32 30 28 27 27 27 27 26 27 28 29 28 29 28 28 27 29
-3 -2 -2 -0 0 1 1 1 2 2 3 4 4 5 6 7 9 11 13 15 15 16 18 18 19 19 19 18 17 17 17 18 18 18 19 20 20 21 22 23 24 25 25 27 27 27 24 25 25 25 25 22 21 21 21 19 19 26 30 30 28 26 28 25 24 24 26 28 28 29 30 28 28 28
-4 -2 -0 -1 -0 -0 -0 0 2 2 2 2 3 4 6 7 10 12 13 13 14 15 17 18 19 19 19 19 19 18 17 18 18 19 20 21 22 22 23 24 24 26 26 26 27 25 24 24 24 25 25 24 23 24 25 22 18 25 29 32 30 27 26 25 24 25 26 25 26 26 22 25 28 30
-3 -1 -1 -1 -1 -0 -0 1 1 1 2 3 4 5 7 8 9 10 11 12 13 15 16 17 19 20 19 20 19 19 19 19 19 20 21 22 23 24 24 24 24 25 24 22 22 23 23 24 24 25 25 26 27 27 25 24 18 17 22 30 33 30 27 27 25 25 24 26 26 21 18 21 18 22
-3 -3 -3 -2 -1 -0 -0 0 0 2 3 4 5 8 8 9 9 9 11 13 14 13 14 17 18 18 19 20 20 20 19 19 20 21 22 23 23 24 24 24 24 24 23 21 21 21 21 24 26 30 28 26 23 23 21 18 17 18 20 23 29 32 32 30 28 26 24 26 24 21 20 17 18 19
-3 -3 -2 -2 -2 -1 0 1 2 3 3 5 6 7 8 9 9 12 12 13 12 13 14 15 15 16 17 18 20 21 21 21 21 22 23 23 23 23 24 24 23 24 23 22 22 23 21 20 22 24 22 22 23 22 20 21 20 18 19 20 23 29 31 30 31 30 28 25 23 20 17 16 17 14
-3 -3 -3 -1 -0 1 1 2 3 4 5 6 6 7 8 9 9 10 10 10 11 12 13 13 14 14 15 16 18 19 20 21 22 23 23 23 23 23 23 23 23 23 23 23 19 17 17 19 20 21 21 22 22 23 21 21 21 18 17 18 18 20 23 28 29 29 29 29 29 26 24 20 16 11
-3 -2 -2 -0 0 1 2 3 4 6 7 7 8 9 9 9 9 9 10 10 11 11 12 12 12 13 14 15 16 17 18 20 21 22 22 23 23 23 23 23 22 21 20 18 17 17 17 17 19 20 19 19 21 20 21 19 16 17 17 17 18 18 19 21 24 26 26 26 26 26 26 25 25 25
-1 -1 -0 1 1 2 3 4 5 7 8 8 9 9 9 9 9 10 10 10 10 11 11 11 11 12 13 14 15 15 16 19 19 20 21 22 23 23 22 22 21 20 18 18 16 14 16 16 18 19 19 18 19 19 19 18 16 15 15 15 15 17 18 18 16 15 16 18 23 25 25 25 26 26
MSLP
1027.60 1027.40 1027.24 1027.20 1027.00 1026.80 1026.68 1026.60 1026.52 1026.36 1026.28 1026.20 1026.04 1026.00 1025.88 1025.64 1025.72 1025.08 1023.08 1021.44 1021.56 1020.68 1020.80 1020.60 1019.84 1019.92 1019.88 1019.76 1019.80 1019.88 1019.80 1019.60 1019.48 1019.36 1019.32 1019.28 1019.16 1018.96 1018.84 1018.72 1018.60 1018.52 1018.44 1018.36 1018.24 1018.16 1018.16 1018.20 1018.28 1018.32 1018.28 1018.24 1018.24 1018.32 1018.44 1018.60 1018.76 1018.88 1019.08 1019.28 1019.40 1019.32 1019.36 1019.56 1019.72 1019.88 1020.04 1020.20 1020.28 1020.48 1020.72 1020.92 1021.12 1021.12
1027.60 1027.44 1027.32 1027.20 1027.00 1026.80 1026.64 1026.44 1026.36 1026.24 1026.12 1026.04 1025.96 1025.84 1025.76 1025.68 1025.56 1025.04 1024.60 1022.60 1021.80 1021.16 1020.44 1020.52 1019.96 1019.72 1019.68 1019.76 1019.64 1019.60 1019.48 1019.40 1019.24 1019.08 1018.96 1018.92 1018.80 1018.52 1018.36 1018.32 1018.36 1018.32 1018.20 1018.12 1017.96 1017.84 1017.76 1017.80 1017.88 1018.00 1018.08 1018.04 1018.04 1018.08 1018.16 1018.32 1018.48 1018.68 1018.84 1019.04 1019.16 1019.20 1019.12 1019.16 1019.36 1019.52 1019.76 1020.00 1020.12 1020.28 1020.52 1020.80 1020.96 1021.04
1027.60 1027.44 1027.24 1027.16 1027.08 1026.84 1026.64 1026.40 1026.28 1026.12 1026.04 1025.92 1025.76 1025.68 1025.60 1025.52 1025.36 1025.08 1024.76 1024.12 1021.44 1021.60 1020.60 1019.96 1020.04 1019.96 1019.76 1019.64 1019.44 1019.36 1019.24 1019.00 1018.84 1018.68 1018.56 1018.48 1018.36 1018.20 1018.04 1018.04 1018.04 1017.96 1017.92 1017.80 1017.72 1017.60 1017.48 1017.44 1017.40 1017.52 1017.64 1017.72 1017.76 1017.84 1017.88 1018.00 1018.16 1018.36 1018.52 1018.68 1018.84 1018.96 1018.96 1018.88 1019.00 1019.20 1019.48 1019.72 1019.88 1020.08 1020.32 1020.60 1020.72 1020.80
1027.64 1027.48 1027.28 1027.16 1027.08 1026.80 1026.64 1026.40 1026.24 1026.04 1025.88 1025.80 1025.64 1025.52 1025.40 1025.24 1025.08 1025.00 1024.72 1024.20 1022.24 1021.76 1021.76 1020.12 1019.88 1019.84 1019.68 1019.40 1019.28 1019.04 1018.92 1018.72 1018.56 1018.36 1018.24 1018.08 1018.08 1018.00 1017.84 1017.72 1017.68 1017.64 1017.60 1017.52 1017.44 1017.32 1017.20 1017.12 1017.08 1017.08 1017.16 1017.28 1017.40 1017.48 1017.60 1017.72 1017.84 1018.00 1018.12 1018.32 1018.48 1018.64 1018.76 1018.76 1018.76 1018.88 1019.12 1019.36 1019.56 1019.80 1020.04 1020.32 1020.48 1020.60
1027.72 1027.56 1027.40 1027.24 1027.08 1026.84 1026.56 1026.28 1026.12 1025.96 1025.76 1025.60 1025.48 1025.28 1025.20 1024.96 1024.80 1024.76 1024.52 1023.84 1022.40 1021.32 1021.52 1020.84 1019.88 1019.64 1019.68 1019.04 1018.96 1018.64 1018.56 1018.44 1018.32 1018.12 1018.00 1017.96 1017.92 1017.72 1017.64 1017.48 1017.40 1017.36 1017.32 1017.24 1017.16 1017.08 1016.96 1016.84 1016.76 1016.76 1016.80 1016.92 1017.00 1017.12 1017.20 1017.36 1017.48 1017.64 1017.76 1017.92 1018.08 1018.28 1018.44 1018.56 1018.56 1018.60 1018.80 1019.04 1019.28 1019.52 1019.80 1020.04 1020.20 1020.40
1027.72 1027.56 1027.36 1027.12 1027.04 1026.84 1026.56 1026.20 1026.04 1025.88 1025.60 1025.44 1025.20 1024.96 1024.88 1024.68 1024.32 1024.28 1024.20 1023.40 1022.72 1021.24 1020.96 1020.92 1020.20 1019.64 1019.60 1019.04 1018.44 1018.72 1018.16 1018.16 1018.12 1017.96 1017.68 1017.64 1017.60 1017.44 1017.28 1017.28 1017.12 1017.08 1017.04 1017.00 1016.92 1016.84 1016.68 1016.56 1016.44 1016.36 1016.36 1016.40 1016.52 1016.60 1016.72 1016.84 1017.04 1017.20 1017.32 1017.52 1017.72 1017.88 1018.00 1018.16 1018.32 1018.36 1018.52 1018.76 1019.04 1019.32 1019.56 1019.80 1020.00 1020.12
1027.68 1027.44 1027.24 1027.00 1026.92 1026.76 1026.44 1026.12 1026.00 1025.84 1025.64 1025.36 1025.12 1024.72 1024.52 1024.32 1024.00 1023.80 1023.80 1023.48 1022.40 1021.52 1020.52 1020.60 1020.24 1019.76 1019.32 1019.12 1018.28 1018.32 1018.32 1017.84 1017.92 1017.68 1017.48 1017.40 1017.20 1017.16 1017.08 1016.96 1016.80 1016.76 1016.72 1016.60 1016.56 1016.48 1016.40 1016.32 1016.16 1016.00 1015.92 1015.88 1015.92 1016.04 1016.16 1016.32 1016.52 1016.72 1016.88 1017.08 1017.28 1017.48 1017.64 1017.76 1017.92 1018.08 1018.24 1018.36 1018.60 1018.92 1019.28 1019.56 1019.72 1019.84
1027.56 1027.40 1027.08 1026.80 1026.80 1026.68 1026.44 1026.08 1025.88 1025.80 1025.60 1025.36 1025.04 1024.64 1024.24 1024.04 1023.76 1023.40 1023.28 1023.04 1022.56 1021.44 1020.76 1019.92 1020.28 1019.72 1019.48 1018.72 1018.28 1018.16 1018.04 1017.80 1017.60 1017.48 1017.08 1017.08 1017.04 1016.84 1016.76 1016.64 1016.52 1016.44 1016.40 1016.36 1016.24 1016.16 1016.08 1015.96 1015.84 1015.68 1015.56 1015.48 1015.48 1015.60 1015.68 1015.88 1016.12 1016.32 1016.48 1016.64 1016.80 1016.96 1017.16 1017.32 1017.48 1017.64 1017.76 1018.00 1018.28 1018.56 1018.88 1019.24 1019.44 1019.52
1027.40 1027.20 1027.00 1026.72 1026.60 1026.52 1026.28 1025.88 1025.80 1025.68 1025.44 1025.20 1025.00 1024.60 1024.24 1023.96 1023.56 1023.16 1022.80 1022.48 1022.20 1021.56 1020.76 1019.80 1019.60 1019.68 1019.20 1018.88 1018.32 1018.04 1017.92 1017.40 1017.16 1017.04 1016.88 1016.64 1016.60 1016.48 1016.40 1016.32 1016.12 1016.00 1015.92 1015.84 1015.80 1015.76 1015.64 1015.56 1015.52 1015.44 1015.32 1015.20 1015.12 1015.16 1015.20 1015.36 1015.64 1015.84 1016.00 1016.20 1016.32 1016.44 1016.60 1016.80 1017.00 1017.20 1017.36 1017.60 1017.84 1018.08 1018.36 1018.72 1018.96 1019.16
1027.20 1027.04 1026.80 1026.60 1026.52 1026.40 1026.24 1025.80 1025.52 1025.48 1025.28 1025.00 1024.72 1024.48 1024.12 1023.84 1023.52 1023.04 1022.52 1022.16 1021.76 1021.36 1020.40 1019.92 1019.24 1019.24 1019.16 1018.68 1018.40 1017.92 1017.84 1017.72 1017.00 1016.44 1016.24 1016.24 1016.24 1016.20 1016.00 1015.80 1015.68 1015.68 1015.68 1015.60 1015.48 1015.40 1015.32 1015.16 1015.04 1015.04 1014.96 1014.84 1014.72 1014.72 1014.72 1014.80 1015.00 1015.24 1015.44 1015.60 1015.80 1015.92 1016.04 1016.24 1016.48 1016.72 1016.96 1017.16 1017.40 1017.64 1017.96 1018.16 1018.44 1018.76
1027.04 1026.92 1026.72 1026.52 1026.44 1026.32 1026.04 1025.76 1025.48 1025.24 1025.00 1024.80 1024.40 1024.16 1023.84 1023.52 1023.28 1022.84 1022.36 1021.96 1021.56 1021.08 1020.32 1019.40 1019.12 1018.84 1018.56 1018.64 1018.04 1017.72 1017.72 1017.44 1017.16 1016.60 1016.04 1015.72 1015.72 1015.72 1015.64 1015.20 1015.24 1015.32 1015.24 1015.04 1014.92 1014.88 1014.88 1014.88 1014.80 1014.60 1014.44 1014.40 1014.32 1014.24 1014.20 1014.20 1014.40 1014.64 1014.88 1015.08 1015.24 1015.44 1015.60 1015.80 1016.08 1016.32 1016.56 1016.80 1017.04 1017.36 1017.72 1018.00 1018.12 1018.36
1026.88 1026.72 1026.56 1026.40 1026.28 1026.08 1025.84 1025.64 1025.28 1025.08 1024.72 1024.36 1023.92 1023.60 1023.44 1023.28 1023.00 1022.60 1022.16 1021.80 1021.44 1020.92 1020.28 1019.56 1018.80 1018.44 1018.32 1018.08 1017.96 1017.72 1017.68 1017.44 1016.76 1016.64 1016.64 1015.96 1015.16 1015.00 1015.16 1015.04 1014.88 1014.76 1014.84 1014.76 1014.72 1014.64 1014.64 1014.56 1014.48 1014.40 1014.20 1014.00 1013.84 1013.76 1013.76 1013.72 1013.88 1014.08 1014.40 1014.72 1014.92 1015.08 1015.24 1015.36 1015.56 1015.80 1016.08 1016.36 1016.64 1017.00 1017.40 1017.72 1017.88 1017.96
1026.68 1026.48 1026.28 1026.16 1026.04 1025.88 1025.60 1025.32 1025.04 1024.76 1024.52 1024.20 1023.72 1023.24 1023.20 1022.96 1022.72 1022.32 1022.04 1021.68 1021.28 1020.64 1020.20 1019.24 1018.72 1018.32 1018.04 1017.80 1017.80 1017.60 1017.48 1017.32 1016.68 1016.00 1016.08 1015.76 1015.08 1014.68 1014.64 1014.36 1014.40 1014.32 1014.36 1014.40 1014.40 1014.32 1014.20 1014.24 1014.16 1014.04 1013.80 1013.36 1013.28 1013.32 1013.36 1013.28 1013.32 1013.52 1013.88 1014.24 1014.52 1014.76 1014.88 1014.96 1015.12 1015.36 1015.68 1016.00 1016.36 1016.68 1017.04 1017.32 1017.56 1017.68
1026.44 1026.28 1026.08 1025.96 1025.84 1025.60 1025.32 1025.12 1024.80 1024.52 1024.20 1023.92 1023.64 1023.16 1022.92 1022.72 1022.44 1022.00 1021.68 1021.28 1020.92 1020.56 1020.00 1019.36 1018.80 1018.24 1017.64 1017.36 1017.28 1017.12 1016.64 1016.52 1016.36 1016.16 1016.04 1015.76 1014.92 1014.56 1014.28 1013.80 1013.44 1013.84 1014.04 1014.12 1013.96 1013.64 1013.60 1013.80 1013.56 1013.56 1013.32 1012.80 1012.96 1012.92 1012.92 1012.72 1012.80 1013.00 1013.32 1013.60 1013.88 1014.20 1014.44 1014.64 1014.72 1014.92 1015.20 1015.52 1015.88 1016.24 1016.56 1016.80 1017.04 1017.28
1026.16 1026.04 1025.96 1025.84 1025.72 1025.60 1025.44 1025.24 1025.00 1024.64 1024.36 1024.08 1023.72 1023.36 1023.00 1022.64 1022.36 1021.92 1021.48 1021.04 1020.72 1020.28 1019.76 1019.04 1018.52 1017.84 1017.00 1016.36 1016.44 1016.40 1016.24 1016.08 1016.12 1016.00 1015.76 1015.48 1015.16 1014.64 1014.60 1013.72 1012.52 1012.92 1013.40 1013.68 1013.48 1013.00 1012.92 1013.20 1013.08 1012.76 1012.64 1012.40 1012.56 1012.52 1012.16 1012.24 1012.48 1012.76 1012.88 1012.96 1013.20 1013.52 1013.80 1014.08 1014.28 1014.48 1014.72 1014.96 1015.28 1015.64 1015.96 1016.24 1016.48 1016.80
1026.20 1026.00 1025.84 1025.80 1025.72 1025.56 1025.36 1025.12 1024.80 1024.60 1024.36 1024.04 1023.64 1023.28 1022.96 1022.68 1022.36 1022.12 1021.76 1021.32 1020.92 1020.60 1020.16 1019.40 1018.52 1017.88 1016.88 1016.32 1016.08 1015.96 1015.92 1015.76 1015.76 1015.60 1015.52 1015.24 1015.04 1014.52 1014.24 1013.88 1013.16 1012.52 1012.84 1013.24 1013.20 1012.52 1012.20 1012.60 1012.60 1012.28 1012.00 1011.96 1012.04 1012.04 1011.88 1011.96 1012.08 1012.20 1012.28 1012.48 1012.64 1012.88 1013.20 1013.52 1013.80 1014.00 1014.16 1014.40 1014.68 1015.00 1015.36 1015.72 1015.96 1016.28
1026.32 1026.16 1025.96 1025.80 1025.60 1025.36 1025.04 1024.84 1024.64 1024.40 1024.04 1023.72 1023.36 1022.96 1022.64 1022.40 1022.20 1021.96 1021.60 1021.28 1020.92 1020.56 1020.20 1019.72 1018.68 1018.16 1017.64 1017.24 1016.68 1016.40 1015.96 1015.80 1015.56 1015.40 1015.00 1014.84 1014.60 1014.32 1013.88 1013.24 1012.88 1012.44 1012.84 1012.88 1012.64 1012.04 1011.52 1012.04 1012.24 1011.84 1011.16 1011.36 1011.56 1011.60 1011.64 1011.60 1011.64 1011.68 1011.80 1011.96 1012.08 1012.28 1012.52 1012.80 1013.12 1013.40 1013.68 1013.92 1014.16 1014.44 1014.80 1015.12 1015.44 1015.76
1026.32 1026.16 1025.96 1025.60 1025.28 1025.04 1024.84 1024.60 1024.36 1024.00 1023.64 1023.20 1022.88 1022.68 1022.48 1022.24 1021.96 1021.64 1021.32 1020.92 1020.56 1020.28 1019.80 1019.32 1018.56 1017.68 1018.20 1017.60 1016.88 1016.60 1017.00 1016.80 1016.24 1015.64 1014.92 1014.56 1014.20 1014.00 1013.56 1013.12 1012.56 1012.24 1012.52 1012.48 1012.48 1011.48 1011.04 1011.40 1011.68 1011.16 1010.64 1010.84 1011.08 1010.92 1010.88 1011.00 1011.16 1011.28 1011.36 1011.52 1011.64 1011.76 1012.00 1012.16 1012.32 1012.72 1013.08 1013.44 1013.76 1014.00 1014.28 1014.60 1014.88 1015.20
1026.04 1025.96 1025.80 1025.48 1025.04 1024.72 1024.48 1024.24 1023.92 1023.44 1023.04 1022.72 1022.44 1022.24 1022.04 1021.88 1021.60 1021.32 1021.08 1020.76 1020.36 1019.88 1019.32 1018.80 1018.20 1017.52 1017.44 1017.28 1016.80 1016.44 1016.40 1016.16 1015.88 1015.56 1015.04 1014.56 1014.00 1013.52 1013.12 1012.68 1012.36 1012.12 1012.12 1012.20 1012.28 1011.16 1010.28 1010.68 1011.08 1010.56 1010.20 1010.36 1010.52 1010.32 1010.28 1010.52 1010.64 1010.72 1010.76 1010.92 1011.12 1011.32 1011.52 1011.64 1011.80 1012.12 1012.40 1012.76 1013.16 1013.52 1013.84 1014.12 1014.36 1014.60
1025.80 1025.68 1025.48 1025.16 1024.68 1024.36 1024.04 1023.76 1023.32 1022.92 1022.52 1022.12 1021.88 1021.64 1021.40 1021.20 1020.88 1020.56 1020.32 1019.92 1019.48 1019.00 1018.52 1018.04 1017.48 1016.96 1016.72 1016.56 1016.24 1015.88 1015.68 1015.44 1015.20 1014.92 1014.52 1014.16 1013.64 1013.40 1012.92 1012.28 1011.96 1011.60 1011.48 1011.68 1011.88 1011.16 1010.28 1010.16 1010.44 1009.92 1009.68 1009.96 1009.88 1009.84 1009.92 1009.96 1009.92 1010.00 1010.12 1010.28 1010.44 1010.68 1010.92 1011.08 1011.24 1011.52 1011.76 1012.08 1012.48 1012.92 1013.36 1013.72 1013.96 1014.16
1025.36 1025.20 1025.04 1024.80 1024.36 1023.92 1023.56 1023.20 1022.72 1022.24 1021.88 1021.48 1021.20 1020.88 1020.52 1020.24 1020.00 1019.64 1019.40 1019.04 1018.64 1018.24 1017.84 1017.36 1016.88 1016.44 1016.12 1015.92 1015.60 1015.24 1015.00 1014.96 1015.00 1014.80 1014.44 1013.64 1013.24 1012.72 1012.28 1011.52 1011.24 1010.48 1010.92 1010.88 1011.16 1010.92 1010.24 1009.60 1009.84 1009.40 1009.16 1009.32 1009.28 1009.28 1009.28 1009.32 1009.12 1009.28 1009.48 1009.64 1009.76 1009.92 1010.24 1010.44 1010.72 1010.92 1011.16 1011.48 1011.84 1012.24 1012.72 1013.16 1013.52 1013.88
1024.84 1024.72 1024.56 1024.28 1023.92 1023.36 1022.88 1022.44 1021.88 1021.36 1020.96 1020.48 1020.16 1019.92 1019.60 1019.28 1019.08 1018.68 1018.44 1018.00 1017.72 1017.48 1017.08 1016.64 1016.28 1015.96 1015.76 1015.60 1015.32 1015.08 1014.84 1014.76 1014.88 1014.92 1014.40 1013.68 1013.92 1013.44 1012.68 1011.40 1010.48 1009.76 1009.80 1009.88 1010.52 1010.60 1009.40 1009.40 1009.16 1009.36 1008.96 1008.84 1008.64 1008.56 1008.52 1008.52 1008.56 1008.76 1008.84 1008.92 1009.08 1009.28 1009.48 1009.76 1010.08 1010.32 1010.56 1010.84 1011.12 1011.52 1012.04 1012.56 1013.12 1013.68
1024.36 1023.96 1023.88 1023.56 1023.08 1022.56 1021.88 1021.40 1020.92 1020.52 1020.20 1019.80 1019.52 1019.24 1018.88 1018.52 1018.20 1017.88 1017.68 1017.36 1017.00 1016.76 1016.52 1016.00 1015.80 1015.36 1015.32 1015.08 1014.84 1014.64 1014.52 1014.40 1014.48 1014.52 1014.16 1013.84 1013.92 1013.24 1012.36 1011.68 1011.04 1010.16 1008.96 1009.00 1009.36 1009.52 1008.96 1009.24 1008.60 1009.16 1009.04 1008.32 1008.00 1007.88 1007.80 1007.96 1008.00 1008.16 1008.32 1008.48 1008.72 1008.76 1008.96 1009.12 1009.48 1009.84 1010.20 1010.40 1010.56 1010.88 1011.28 1011.88 1012.56 1013.08
1023.32 1023.20 1022.88 1022.76 1022.44 1021.72 1021.16 1020.64 1020.16 1019.80 1019.48 1019.16 1018.72 1018.52 1018.20 1017.84 1017.24 1016.96 1016.60 1016.36 1016.24 1015.72 1015.60 1015.08 1015.00 1014.72 1014.56 1014.40 1014.20 1013.96 1013.76 1013.68 1013.76 1013.76 1013.60 1013.36 1013.36 1013.16 1012.44 1011.60 1011.12 1010.24 1009.04 1008.60 1008.76 1008.48 1008.20 1008.28 1008.24 1008.24 1008.04 1008.24 1007.32 1007.08 1007.44 1007.40 1007.48 1007.68 1007.84 1008.12 1008.28 1008.24 1008.44 1008.72 1009.00 1009.20 1009.56 1009.80 1010.00 1010.28 1010.64 1011.08 1011.68 1012.24
1022.64 1022.40 1022.24 1021.92 1021.68 1021.00 1020.48 1019.96 1019.44 1019.04 1018.64 1018.20 1017.92 1017.72 1017.44 1017.04 1016.32 1015.88 1015.72 1015.44 1015.36 1014.92 1014.64 1014.40 1014.16 1014.00 1013.88 1013.72 1013.56 1013.32 1013.12 1012.96 1012.88 1012.84 1012.68 1012.52 1012.40 1012.24 1011.64 1010.84 1010.24 1009.52 1008.64 1008.60 1009.00 1008.64 1007.80 1007.68 1007.68 1007.88 1007.56 1007.56 1006.80 1006.76 1007.20 1007.28 1007.12 1007.20 1007.36 1007.40 1007.60 1007.80 1008.12 1008.28 1008.60 1008.64 1008.88 1009.16 1009.56 1009.84 1010.08 1010.40 1010.76 1011.24
1021.88 1021.72 1021.32 1021.08 1020.72 1020.28 1019.72 1019.20 1018.72 1018.28 1017.72 1017.32 1017.08 1016.68 1016.24 1015.64 1015.32 1015.04 1014.80 1014.56 1014.40 1014.20 1013.96 1013.84 1013.60 1013.48 1013.44 1013.24 1013.04 1012.72 1012.40 1012.20 1012.04 1011.84 1011.64 1011.52 1011.44 1011.32 1011.04 1010.64 1010.16 1009.40 1008.24 1008.16 1008.68 1008.52 1008.16 1007.16 1006.96 1007.36 1007.20 1007.24 1006.68 1006.60 1006.80 1007.04 1007.04 1006.84 1007.04 1007.12 1007.16 1007.24 1007.52 1007.88 1008.12 1008.32 1008.52 1008.64 1008.88 1009.12 1009.44 1009.84 1010.20 1010.56
1021.20 1020.84 1020.64 1020.32 1020.00 1019.36 1018.80 1018.36 1017.96 1017.40 1016.80 1016.60 1016.36 1015.84 1015.36 1015.00 1014.56 1014.20 1014.00 1014.04 1014.00 1013.92 1013.72 1013.60 1013.32 1013.12 1013.08 1012.84 1012.40 1012.20 1011.88 1011.52 1011.32 1011.08 1010.84 1010.68 1010.60 1010.24 1009.84 1009.48 1009.16 1008.60 1008.08 1008.20 1008.32 1008.04 1007.64 1006.60 1006.36 1006.40 1006.44 1006.52 1006.48 1006.20 1006.40 1006.56 1006.52 1006.80 1006.92 1006.96 1006.96 1007.08 1007.28 1007.56 1007.76 1007.88 1008.08 1008.24 1008.32 1008.68 1009.08 1009.48 1009.76 1010.00
1020.60 1020.16 1019.80 1019.44 1018.84 1018.32 1017.88 1017.48 1016.96 1016.44 1016.24 1015.88 1015.48 1015.12 1014.68 1014.40 1014.20 1014.16 1014.00 1013.96 1013.84 1013.64 1013.44 1013.28 1012.96 1012.60 1012.48 1012.40 1011.84 1011.44 1011.24 1010.96 1010.72 1010.48 1010.24 1010.04 1009.88 1009.60 1009.12 1008.80 1008.48 1008.16 1007.88 1007.68 1007.60 1007.44 1006.96 1006.32 1005.84 1005.64 1005.64 1005.64 1005.88 1005.80 1005.68 1005.92 1005.92 1006.28 1006.52 1006.68 1006.76 1006.88 1007.00 1007.08 1007.20 1007.44 1007.76 1008.00 1008.16 1008.28 1008.64 1008.88 1009.00 1009.40
1020.00 1019.44 1018.80 1018.24 1017.84 1017.44 1017.00 1016.60 1016.24 1015.96 1015.80 1015.52 1015.20 1014.84 1014.52 1014.24 1014.16 1014.08 1013.96 1013.84 1013.76 1013.52 1013.24 1012.88 1012.40 1011.96 1011.76 1011.52 1011.00 1010.72 1010.60 1010.32 1010.04 1009.80 1009.44 1009.28 1009.04 1008.76 1008.48 1008.08 1007.80 1007.44 1007.20 1006.88 1006.76 1006.52 1006.24 1005.80 1005.36 1005.24 1005.24 1004.88 1004.76 1004.68 1004.96 1004.92 1005.64 1005.96 1006.04 1006.48 1006.96 1006.72 1006.64 1006.72 1006.88 1007.08 1007.28 1007.56 1007.76 1007.84 1007.80 1007.96 1008.36 1008.80
1019.28 1018.84 1018.32 1017.72 1017.24 1016.92 1016.68 1016.44 1016.28 1015.96 1015.60 1015.12 1014.76 1014.44 1014.24 1014.20 1014.20 1014.16 1014.04 1013.80 1013.68 1013.32 1012.84 1012.40 1011.88 1011.36 1011.08 1010.76 1010.44 1010.20 1010.00 1009.72 1009.32 1009.24 1009.00 1008.64 1008.24 1008.20 1007.96 1007.52 1006.84 1006.52 1006.32 1006.20 1006.04 1005.80 1005.40 1005.16 1004.96 1004.88 1004.64 1004.36 1004.08 1003.88 1003.96 1004.44 1004.92 1005.40 1005.56 1005.56 1005.72 1006.16 1006.28 1006.44 1006.40 1006.40 1006.64 1006.88 1007.12 1007.24 1007.36 1007.52 1007.76 1008.24
1018.88 1018.16 1017.68 1017.32 1016.92 1016.64 1016.36 1016.16 1015.80 1015.44 1015.12 1015.00 1014.88 1014.68 1014.48 1014.32 1014.20 1014.08 1013.96 1013.72 1013.32 1012.72 1012.16 1011.60 1011.12 1010.64 1010.24 1009.92 1009.68 1009.44 1009.20 1008.80 1008.40 1008.44 1008.28 1007.92 1007.44 1007.40 1007.20 1006.88 1006.00 1005.60 1005.24 1005.12 1004.92 1004.68 1004.56 1004.40 1004.28 1004.24 1004.04 1003.68 1003.60 1003.24 1003.20 1003.56 1003.88 1004.88 1005.08 1005.16 1005.24 1005.60 1005.72 1005.80 1005.96 1006.20 1006.28 1006.40 1006.56 1006.80 1007.04 1007.28 1007.48 1007.60
1018.08 1017.72 1017.56 1017.44 1017.24 1016.88 1016.44 1016.12 1015.92 1015.72 1015.56 1015.36 1015.08 1014.80 1014.52 1014.28 1014.00 1013.64 1013.20 1012.84 1012.44 1011.84 1011.36 1010.76 1010.20 1009.64 1009.36 1009.08 1008.72 1008.52 1008.28 1007.88 1007.64 1007.64 1007.52 1007.20 1006.72 1006.60 1006.56 1006.20 1005.24 1004.80 1004.44 1004.16 1003.80 1003.60 1003.60 1003.52 1003.48 1003.24 1003.00 1002.88 1002.80 1002.68 1002.92 1002.92 1003.04 1003.60 1004.48 1004.52 1004.56 1004.56 1004.76 1005.04 1005.40 1005.48 1005.64 1006.08 1006.48 1006.56 1006.52 1006.60 1006.72 1007.00
1018.04 1018.12 1017.88 1017.60 1017.08 1016.88 1016.76 1016.64 1016.48 1016.24 1016.00 1015.64 1015.28 1014.84 1014.40 1014.00 1013.56 1013.12 1012.76 1012.32 1011.76 1011.28 1010.84 1010.20 1009.64 1009.08 1008.64 1008.20 1007.88 1007.68 1007.32 1007.00 1006.84 1006.64 1006.52 1006.16 1006.04 1005.64 1005.60 1005.16 1004.52 1004.24 1003.84 1003.32 1002.88 1002.56 1002.44 1002.32 1002.36 1002.24 1002.08 1002.00 1002.00 1002.16 1002.44 1002.60 1002.52 1002.64 1003.48 1003.96 1004.16 1004.20 1004.20 1004.48 1004.56 1004.84 1005.32 1005.80 1005.96 1006.00 1006.12 1006.24 1006.32 1006.44
1018.56 1018.44 1018.36 1018.04 1018.04 1017.92 1017.68 1017.28 1016.76 1016.20 1015.64 1015.12 1014.64 1014.28 1014.00 1013.64 1013.28 1012.76 1012.20 1011.64 1011.12 1010.64 1010.20 1009.60 1009.04 1008.44 1007.96 1007.44 1007.00 1006.72 1006.36 1006.00 1005.88 1005.68 1005.56 1005.28 1005.08 1004.84 1004.36 1004.08 1003.44 1003.12 1002.84 1002.40 1002.00 1001.68 1001.48 1001.44 1001.44 1001.48 1001.44 1001.36 1001.32 1001.36 1001.48 1001.64 1001.76 1002.00 1002.64 1003.24 1003.48 1003.68 1003.60 1003.88 1004.12 1004.36 1004.64 1004.80 1005.16 1005.64 1005.92 1006.04 1006.04 1006.16
1019.24 1019.16 1019.24 1019.04 1018.84 1018.52 1018.16 1017.68 1017.04 1016.48 1015.96 1015.48 1015.04 1014.48 1013.96 1013.40 1012.84 1012.28 1011.72 1011.20 1010.76 1010.20 1009.52 1008.88 1008.32 1007.68 1007.24 1006.72 1006.28 1006.04 1005.64 1005.40 1005.04 1004.80 1004.56 1004.44 1004.16 1003.92 1003.52 1003.16 1002.56 1002.12 1001.72 1001.28 1000.92 1000.72 1000.72 1000.68 1000.72 1000.80 1000.88 1001.12 1001.36 1001.12 1000.96 1000.76 1000.96 1001.20 1002.04 1002.56 1002.76 1002.96 1003.12 1003.40 1003.80 1004.08 1004.32 1004.60 1004.80 1005.12 1005.36 1005.48 1005.64 1005.76
1020.12 1020.08 1019.88 1019.52 1019.16 1018.72 1018.24 1017.68 1017.24 1016.84 1016.36 1015.92 1015.52 1014.96 1014.20 1013.40 1012.72 1012.20 1011.56 1010.96 1010.48 1009.72 1009.08 1008.32 1007.56 1006.96 1006.44 1006.00 1005.64 1005.36 1005.08 1004.84 1004.60 1004.24 1003.88 1003.60 1003.28 1002.88 1002.56 1002.04 1001.40 1000.72 1000.28 999.92 999.68 999.60 999.76 999.88 1000.16 1000.40 1000.56 1000.68 1000.88 1000.72 1000.32 1000.32 1000.56 1000.64 1001.36 1001.96 1002.28 1002.52 1002.76 1003.16 1003.56 1003.80 1004.04 1004.36 1004.48 1004.72 1004.92 1005.08 1005.16 1005.36
1020.56 1020.28 1020.00 1019.60 1019.12 1018.68 1018.28 1017.84 1017.52 1017.04 1016.60 1016.08 1015.48 1014.96 1014.40 1013.64 1012.84 1012.12 1011.36 1010.68 1009.96 1009.16 1008.48 1007.72 1006.88 1006.24 1005.80 1005.40 1005.08 1004.80 1004.52 1004.40 1004.12 1003.68 1003.36 1002.84 1002.44 1002.04 1001.52 1000.80 1000.04 999.28 998.96 998.80 998.72 998.68 998.96 999.12 999.36 999.56 999.76 999.96 1000.20 1000.12 999.92 1000.16 1000.56 1000.68 1000.76 1001.12 1001.72 1002.12 1002.52 1003.04 1003.52 1003.80 1003.80 1003.84 1004.12 1004.20 1004.20 1004.32 1004.60 1005.00
1020.64 1020.24 1019.84 1019.36 1018.96 1018.64 1018.28 1017.88 1017.48 1016.92 1016.32 1015.80 1015.28 1014.68 1014.04 1013.32 1012.52 1011.68 1010.84 1010.12 1009.40 1008.68 1007.84 1007.08 1006.32 1005.76 1005.28 1004.88 1004.64 1004.32 1004.04 1003.76 1003.52 1003.24 1002.68 1002.20 1001.76 1001.12 1000.44 999.72 998.96 998.44 998.24 997.96 997.88 998.00 998.52 998.60 998.80 998.84 998.96 999.16 999.36 999.68 999.96 1000.68 1000.84 1000.56 1000.72 1000.88 1001.24 1001.96 1002.32 1002.88 1003.32 1003.48 1003.60 1003.64 1003.72 1003.72 1003.84 1004.04 1004.32 1004.64
1020.76 1020.36 1019.88 1019.48 1018.96 1018.64 1018.20 1017.68 1017.20 1016.64 1016.08 1015.56 1014.96 1014.32 1013.56 1012.76 1011.92 1011.04 1010.40 1009.80 1009.12 1008.32 1007.44 1006.64 1005.88 1005.28 1004.76 1004.32 1003.96 1003.68 1003.40 1003.04 1002.68 1002.20 1001.68 1001.20 1000.80 1000.28 999.64 998.96 998.40 997.88 997.64 997.28 997.12 997.52 997.96 998.12 998.28 998.40 998.52 998.60 998.76 998.72 999.08 1000.00 1000.56 1000.36 1000.48 1000.72 1001.00 1001.52 1001.96 1002.28 1002.64 1002.84 1002.92 1003.32 1003.60 1003.96 1004.44 1004.60 1004.64 1004.84
1020.44 1020.16 1019.80 1019.40 1018.96 1018.48 1018.00 1017.44 1016.96 1016.44 1015.92 1015.24 1014.60 1013.92 1013.24 1012.44 1011.76 1011.04 1010.32 1009.64 1008.84 1008.04 1007.36 1006.52 1005.68 1004.92 1004.32 1003.84 1003.40 1003.00 1002.64 1002.32 1001.92 1001.48 1000.96 1000.40 999.84 999.40 998.96 998.44 998.04 997.72 997.48 997.40 997.40 997.28 997.32 997.32 997.52 997.76 998.00 998.04 998.16 998.52 998.88 999.24 999.84 1000.28 1000.40 1000.36 1000.44 1000.64 1001.08 1001.56 1001.88 1002.20 1002.60 1002.76 1003.16 1003.96 1004.60 1004.80 1005.32 1005.48
1020.12 1019.76 1019.48 1019.24 1018.84 1018.36 1017.84 1017.28 1016.68 1016.08 1015.44 1014.76 1014.16 1013.44 1012.84 1012.24 1011.60 1010.96 1010.24 1009.44 1008.76 1008.12 1007.24 1006.28 1005.56 1004.96 1004.24 1003.56 1002.96 1002.52 1002.04 1001.48 1001.00 1000.56 1000.08 999.64 999.20 998.76 998.40 998.08 997.72 997.44 997.28 997.20 997.20 997.44 997.40 996.92 996.60 996.48 996.84 997.56 998.28 998.72 999.08 999.64 999.92 1000.28 1000.52 1000.56 1000.52 1000.60 1000.72 1000.88 1001.08 1001.48 1001.92 1002.36 1002.96 1003.68 1004.20 1004.72 1005.00 1005.40
1020.24 1019.80 1019.32 1018.96 1018.60 1018.04 1017.56 1016.96 1016.24 1015.60 1014.96 1014.36 1013.76 1013.12 1012.48 1011.88 1011.28 1010.60 1009.92 1009.36 1008.80 1008.04 1007.24 1006.48 1005.84 1005.24 1004.56 1003.72 1002.88 1002.12 1001.48 1000.84 1000.20 999.64 999.24 998.96 998.60 998.24 997.92 997.72 997.44 996.96 996.88 996.72 996.68 996.64 996.76 997.00 997.12 997.32 997.64 997.96 998.28 998.68 998.96 999.00 999.40 1000.12 1000.44 1000.52 1000.56 1000.52 1000.64 1000.84 1001.08 1001.24 1001.52 1001.92 1002.68 1003.72 1004.60 1005.16 1005.20 1005.64
1020.12 1019.72 1019.20 1018.68 1018.16 1017.64 1017.12 1016.56 1015.92 1015.36 1014.64 1013.96 1013.40 1012.76 1012.20 1011.52 1010.92 1010.28 1009.76 1009.16 1008.52 1007.84 1007.16 1006.56 1005.92 1005.32 1004.64 1003.92 1003.16 1002.40 1001.60 1000.68 999.88 999.24 998.76 998.44 998.16 997.88 997.56 997.24 997.04 996.80 996.52 996.40 996.76 997.08 997.40 997.40 997.56 997.76 997.96 998.08 998.20 998.24 998.56 998.80 999.12 999.92 1000.60 1000.72 1000.72 1000.88 1000.96 1001.00 1001.16 1001.44 1001.72 1002.04 1002.12 1002.08 1002.28 1002.92 1004.00 1005.20
1019.80 1019.36 1018.88 1018.40 1017.92 1017.36 1016.80 1016.28 1015.72 1015.08 1014.40 1013.72 1013.08 1012.52 1012.00 1011.44 1010.84 1010.28 1009.76 1009.16 1008.52 1007.88 1007.24 1006.64 1006.00 1005.36 1004.68 1003.96 1003.20 1002.44 1001.72 1000.92 1000.08 999.32 998.60 998.08 997.72 997.48 997.24 996.96 996.84 996.84 996.92 997.00 997.24 997.52 997.72 997.76 997.84 998.00 998.16 998.24 998.28 998.48 998.48 998.84 999.56 1000.00 1000.36 1000.72 1000.96 1001.04 1001.24 1001.40 1001.52 1001.76 1002.08 1002.32 1002.52 1002.80 1002.96 1003.16 1003.16 1002.92
1019.64 1019.24 1018.76 1018.24 1017.80 1017.28 1016.76 1016.16 1015.56 1014.88 1014.20 1013.56 1012.96 1012.40 1011.80 1011.28 1010.76 1010.16 1009.60 1009.04 1008.48 1007.84 1007.24 1006.64 1006.00 1005.40 1004.76 1004.04 1003.28 1002.48 1001.72 1001.04 1000.40 999.64 998.92 998.24 997.68 997.28 997.04 996.88 996.84 996.92 997.12 997.28 997.44 997.80 998.00 998.12 998.16 998.16 998.24 998.40 998.48 998.56 998.68 999.04 999.60 1000.24 1000.56 1000.84 1001.08 1001.28 1001.48 1001.64 1001.96 1002.36 1002.68 1003.00 1002.96 1003.00 1003.24 1003.36 1003.44 1003.40
Wind_Speed
5 5 5 5 6 6 4 4 4 5 4 5 5 5 6 6 7 8 9 14 8 3 3 5 3 3 5 6 5 5 5 7 8 6 6 6 7 10 16 19 20 21 22 21 21 19 18 19 18 17 18 17 17 17 17 16 16 16 17 17 18 20 20 20 20 17 18 19 18 17 15 17 18 18
5 5 5 4 6 5 6 6 5 4 5 5 5 6 6 5 8 7 9 13 6 11 5 6 5 2 4 3 6 4 7 8 10 7 7 7 8 13 17 18 19 20 21 22 21 21 20 19 19 18 18 18 17 18 18 18 17 15 16 20 20 20 21 23 21 21 19 20 21 19 18 19 19 19
6 7 7 6 6 5 6 7 6 5 5 6 6 6 5 6 7 8 8 12 7 2 13 6 4 4 5 6 7 7 8 10 12 10 8 8 10 15 13 15 17 19 21 21 22 23 23 22 21 20 20 20 20 18 19 19 18 17 17 21 21 21 22 22 22 19 18 20 22 20 18 19 19 20
5 6 7 6 6 7 6 7 6 6 5 5 6 6 6 6 7 7 8 11 17 7 10 16 12 10 9 8 8 8 7 8 13 10 9 9 11 9 8 12 17 19 20 21 22 22 22 22 21 21 22 22 22 21 20 20 20 19 19 21 23 21 21 19 19 19 18 20 22 21 19 19 19 19
5 6 7 7 6 6 7 7 7 6 6 6 6 6 6 7 6 6 8 12 15 10 6 12 12 10 7 11 5 9 6 7 7 9 8 7 7 8 8 8 12 17 19 21 22 22 23 23 23 22 21 21 22 21 22 21 21 21 21 21 24 24 20 17 16 18 20 21 21 21 19 19 20 20
7 7 9 8 7 6 8 8 7 6 7 7 8 7 7 7 9 5 7 11 12 17 7 8 11 12 8 12 8 6 11 6 6 8 9 7 7 8 8 7 8 13 17 19 21 23 23 23 24 23 21 22 22 23 23 22 22 23 23 20 21 24 23 21 19 18 19 19 19 19 20 21 22 22
7 9 9 9 7 7 9 9 8 7 8 7 8 10 8 8 9 7 7 9 14 16 13 6 10 10 9 10 13 7 7 9 6 8 8 8 7 6 7 8 7 10 16 19 21 23 23 24 24 23 23 23 23 23 26 25 23 23 23 23 21 21 20 21 20 19 18 23 26 22 21 23 25 24
8 9 10 10 8 8 10 10 9 7 7 8 8 9 9 9 10 9 8 9 11 13 15 10 8 8 10 12 11 9 7 9 8 8 9 5 7 8 7 7 8 8 15 18 20 21 23 24 25 25 24 23 23 23 23 23 23 22 22 22 22 21 22 22 21 21 22 21 22 22 23 25 25 25
9 9 9 10 9 8 11 11 9 8 10 9 9 10 10 10 9 9 10 11 10 13 15 15 9 7 10 9 12 10 11 11 9 7 8 8 8 8 7 7 7 10 16 18 20 20 21 23 24 25 25 25 24 24 22 23 24 24 23 22 22 23 23 23 23 22 20 19 22 23 26 28 27 26
7 8 10 10 9 10 10 12 11 9 11 11 11 12 11 11 10 11 12 11 12 13 15 14 14 9 10 10 9 10 9 9 12 11 9 6 6 7 8 8 8 6 6 7 9 13 17 20 24 25 25 26 25 25 23 23 24 23 23 24 23 24 24 24 24 23 21 19 18 19 24 26 26 26
9 9 10 10 10 10 11 12 12 11 11 10 12 12 12 11 11 11 12 11 12 13 15 15 13 12 9 8 12 8 7 9 10 12 12 11 6 7 8 10 6 6 8 10 15 13 12 12 12 17 24 26 26 27 25 24 24 23 23 23 24 25 25 24 24 24 22 20 20 19 21 24 28 26
9 9 9 9 9 9 9 10 11 11 11 10 11 10 9 10 11 12 12 12 12 13 14 14 14 11 11 9 7 7 4 8 11 8 7 13 12 9 6 8 9 6 7 8 7 10 13 14 17 20 21 25 27 26 25 25 24 24 22 22 23 24 24 25 24 24 24 22 21 21 20 21 23 28
8 8 8 7 7 11 17 21 19 18 17 13 12 11 9 9 10 11 11 12 12 12 12 15 13 13 12 10 10 10 9 9 12 10 5 9 11 10 8 8 8 8 7 7 7 8 8 9 9 10 11 13 19 22 25 21 26 25 23 23 21 22 24 25 25 23 23 22 22 21 21 22 22 25
7 8 8 8 16 18 18 18 20 20 20 21 16 13 11 10 11 11 11 11 10 10 12 12 12 14 14 13 10 11 11 9 7 9 8 10 12 11 11 11 8 7 8 7 9 10 7 8 10 9 12 12 12 11 13 15 16 19 24 22 23 23 23 23 24 24 24 24 23 23 23 23 23 23
11 11 11 10 11 13 14 13 19 20 21 21 23 25 25 21 16 13 13 12 10 10 11 11 12 14 17 16 11 11 10 10 9 9 9 10 10 11 10 14 9 5 8 8 9 10 8 9 11 11 11 12 10 11 14 17 21 21 22 23 24 24 25 25 25 25 25 25 25 25 24 24 23 23
12 13 12 11 10 10 11 12 11 14 19 21 22 22 22 22 23 23 18 16 14 13 14 14 15 16 16 15 11 8 8 9 8 8 9 11 11 12 11 10 13 4 10 7 7 11 7 7 10 11 11 10 10 11 14 17 20 22 23 23 24 26 26 25 25 26 27 26 26 26 25 25 24 24
12 11 12 12 11 9 17 13 12 12 13 17 21 21 21 21 20 20 22 22 17 14 15 16 20 18 17 18 16 12 9 8 11 10 11 10 10 11 12 12 12 8 6 7 8 11 7 8 9 12 12 10 8 10 16 21 22 24 24 24 25 26 26 29 28 26 27 26 26 26 27 26 25 25
12 12 12 13 12 11 12 12 13 13 14 14 14 13 13 13 16 19 21 22 24 21 16 16 18 18 14 16 17 15 15 17 15 13 13 10 11 11 12 12 14 9 7 9 6 11 8 6 8 13 11 8 8 10 14 21 23 24 26 28 29 26 30 29 27 27 28 28 26 26 26 26 26 26
12 12 12 13 14 14 12 11 15 15 16 15 12 12 13 13 13 14 15 15 14 14 14 16 18 19 17 16 18 16 14 15 15 14 16 15 14 14 13 13 12 12 6 8 6 15 11 6 8 11 11 6 9 10 13 21 23 25 27 28 30 27 31 29 27 27 26 27 27 26 26 26 26 26
12 12 12 13 13 14 14 17 24 22 18 16 15 14 14 13 13 13 16 22 22 19 17 16 17 17 19 22 20 19 17 15 14 13 13 14 16 15 16 16 12 15 6 10 10 11 13 5 9 10 9 6 9 9 9 16 24 25 26 28 28 30 31 28 29 29 28 29 28 27 26 26 26 25
12 12 12 13 13 15 16 21 26 26 25 17 15 15 15 13 12 12 12 19 24 25 26 29 30 31 31 30 30 30 31 22 17 14 14 14 11 13 15 14 13 15 10 8 10 12 14 9 8 10 8 7 9 9 9 10 19 26 26 27 28 30 30 29 30 30 31 28 29 27 27 28 25 27
12 13 21 20 18 18 18 24 28 29 24 16 14 12 13 15 14 13 12 12 14 24 29 31 32 31 30 29 29 29 28 27 20 11 14 13 12 15 13 13 11 12 11 9 10 10 15 11 9 8 6 4 6 8 9 10 11 20 23 29 29 30 31 30 31 30 30 31 29 28 30 28 26 19
13 13 14 23 22 21 23 31 29 30 24 16 14 14 14 14 13 11 11 13 14 12 13 14 16 17 21 20 16 15 26 27 22 14 14 13 12 13 14 14 13 12 11 10 13 12 10 11 9 6 6 10 6 7 9 9 9 10 10 13 17 29 30 30 29 30 29 29 30 30 29 27 24 13
9 9 10 14 24 28 30 30 31 29 29 21 15 12 11 12 15 12 14 15 14 15 14 15 13 14 13 14 14 13 13 14 14 14 12 12 10 14 15 16 14 15 11 3 11 12 10 11 10 9 13 10 9 3 7 9 9 8 9 10 10 18 25 26 24 30 29 29 31 31 31 29 25 14
9 8 7 7 17 27 28 29 30 30 31 29 19 15 12 13 17 20 14 14 19 15 13 13 11 10 10 10 10 10 11 10 10 11 14 13 12 12 14 14 14 16 15 11 8 10 10 8 11 7 10 10 12 7 2 6 6 8 10 11 11 10 11 13 12 16 22 29 31 31 30 30 31 21
10 11 10 9 16 27 29 30 30 32 32 32 19 17 25 31 31 22 14 12 10 10 10 10 10 9 8 8 8 10 11 11 11 12 11 12 13 14 14 15 16 15 14 10 19 13 12 11 11 10 9 9 11 11 5 3 5 7 8 8 10 10 11 10 11 12 12 13 16 22 24 32 30 32
11 9 11 13 26 31 32 31 31 32 35 27 19 29 30 28 30 25 13 10 9 9 9 9 10 10 9 9 11 11 10 10 11 11 10 12 13 15 14 16 16 16 16 13 11 14 14 16 12 13 13 10 12 10 9 7 4 4 6 8 9 8 8 9 11 11 11 12 13 21 25 28 31 33
12 13 13 16 29 31 31 32 31 30 27 21 28 28 29 29 26 14 12 10 10 11 10 10 11 11 9 10 11 10 11 10 10 11 11 12 15 16 15 16 18 17 18 16 15 18 19 18 15 13 14 13 12 13 11 7 5 7 9 8 7 8 8 10 11 10 10 10 10 12 13 15 18 21
13 20 31 33 32 31 32 33 32 26 25 27 27 29 29 27 12 10 10 11 10 11 11 11 11 12 11 11 13 11 11 12 13 12 11 13 13 13 14 13 15 15 15 13 15 15 18 19 18 16 13 14 14 13 11 10 7 8 9 8 6 8 10 9 9 10 10 10 11 11 14 15 14 15
32 31 30 34 33 29 25 18 13 11 12 24 28 28 26 14 11 10 10 11 10 12 11 13 12 13 11 10 12 11 11 10 12 11 11 11 11 10 11 12 14 15 16 16 17 17 18 18 18 17 16 14 14 14 13 10 7 7 9 11 9 5 7 9 11 11 11 11 12 12 11 13 14 14
16 21 22 16 21 20 27 27 25 23 22 16 13 11 10 9 9 9 8 9 11 13 13 13 13 11 12 12 12 11 11 12 11 10 12 12 12 11 10 12 15 14 13 14 15 15 17 17 18 18 19 17 14 14 13 11 10 8 9 9 10 10 8 12 10 10 10 11 11 11 10 11 12 15
13 11 13 17 13 13 12 10 7 7 7 9 9 9 9 9 10 14 21 20 14 13 12 12 13 13 12 11 11 10 11 12 10 9 10 11 13 12 12 12 14 12 12 12 14 16 18 18 18 18 19 18 17 13 12 12 12 9 9 10 10 9 8 12 12 12 12 10 9 10 12 12 13 12
11 10 11 9 9 7 9 10 9 9 9 8 10 11 10 9 9 9 8 9 10 11 12 13 12 13 12 11 11 10 12 12 11 10 11 12 12 11 11 14 13 13 13 13 13 13 13 15 19 19 17 16 17 16 13 12 12 10 9 10 10 10 8 9 11 12 11 11 11 11 12 11 11 12
11 9 8 8 9 10 10 10 11 11 9 9 8 9 11 11 9 10 9 10 10 10 11 11 12 11 13 12 12 11 12 11 11 12 13 11 11 10 12 12 13 12 13 14 13 12 11 13 14 15 16 16 15 16 15 14 12 11 8 9 10 11 10 9 10 11 12 13 14 12 10 10 11 11
7 9 9 9 9 10 10 10 10 12 11 13 9 11 11 10 11 11 10 8 11 11 12 11 13 12 11 12 12 12 10 11 11 10 9 10 12 13 13 12 14 13 15 14 14 13 13 12 12 13 12 10 9 9 10 13 13 11 8 9 10 11 11 9 9 10 11 11 10 11 11 11 11 10
7 7 8 8 9 9 10 11 11 11 10 10 11 9 11 11 11 11 11 11 10 12 13 13 13 12 12 10 11 10 10 10 10 11 11 11 11 11 11 14 15 16 14 13 12 11 11 11 11 11 11 10 10 11 12 10 10 10 10 9 9 10 9 8 9 9 11 10 11 11 12 12 12 11
7 6 7 8 8 8 9 10 10 10 9 9 9 12 10 12 11 12 13 17 14 13 11 13 11 11 10 11 10 11 11 11 11 11 11 11 10 12 13 14 15 14 11 11 11 11 10 11 11 12 12 11 11 12 9 3 6 6 7 11 9 9 9 8 9 9 9 11 11 12 12 11 11 10
7 8 8 8 8 8 9 9 9 9 9 10 10 10 11 10 11 12 13 10 13 11 13 11 11 11 10 10 10 10 10 9 10 11 13 11 12 11 12 13 12 11 11 11 11 10 8 10 11 11 11 11 11 10 8 0 1 6 8 7 8 8 8 8 9 11 10 9 11 11 10 9 9 8
5 6 7 8 9 8 9 9 9 10 11 10 11 11 12 11 12 10 12 13 12 11 12 11 10 10 11 11 10 10 11 10 10 11 10 11 12 12 11 13 12 10 11 11 11 9 9 11 10 10 10 10 10 9 8 5 6 4 9 16 7 8 9 11 11 11 11 10 9 2 5 3 7 9
6 6 6 7 9 9 9 9 9 9 10 10 10 10 11 12 12 12 12 13 12 11 12 13 13 13 11 11 11 10 9 12 12 11 11 10 11 11 11 10 10 9 8 4 5 8 11 12 12 10 10 10 8 5 4 3 1 0 3 13 21 15 12 12 12 12 11 9 8 8 7 5 6 5
8 8 7 7 8 9 9 9 9 9 9 9 10 11 11 10 11 10 12 13 13 14 12 11 11 13 13 12 11 11 11 11 11 11 11 11 12 11 12 12 11 9 8 7 8 6 8 10 13 18 15 5 5 7 5 2 4 3 6 6 10 15 15 15 12 11 10 10 10 10 10 9 10 8
8 9 9 8 8 9 9 9 10 10 10 10 10 10 10 10 10 19 17 16 14 14 12 11 11 12 13 12 12 12 11 11 11 11 10 10 10 10 11 10 10 9 8 9 10 10 3 2 1 2 5 7 7 7 8 9 8 5 5 3 4 9 13 15 14 11 9 10 11 8 3 4 3 5
7 8 9 9 9 9 9 10 10 10 10 10 10 10 10 10 9 12 9 11 11 11 10 11 11 11 12 12 12 12 12 13 12 11 11 10 10 9 9 9 8 7 7 4 2 4 4 3 4 5 5 6 7 8 8 8 6 5 4 5 5 4 2 9 9 8 9 10 10 11 12 12 11 9
7 8 8 9 9 10 10 10 10 10 10 10 9 9 9 10 11 11 10 10 11 11 12 11 11 11 12 12 11 11 11 11 12 12 11 10 9 9 9 8 6 3 1 3 3 3 4 4 4 5 6 7 6 6 8 5 6 6 6 5 4 6 5 5 6 9 9 9 11 10 8 7 6 5
8 8 9 9 9 9 10 10 10 10 10 10 9 9 10 9 10 10 10 10 11 12 12 12 12 12 13 12 11 12 12 14 12 11 11 10 9 8 8 7 4 3 3 3 5 5 3 4 3 3 3 1 2 4 2 5 6 6 6 7 8 6 5 6 8 9 7 5 5 9 8 8 7 11
Wind_Direction
319 320 319 308 300 302 301 286 271 267 266 256 253 237 246 250 269 301 304 304 311 278 187 292 284 233 259 274 291 300 293 286 286 278 265 257 259 257 255 255 255 255 256 254 250 245 240 240 241 246 247 239 232 227 226 229 233 240 244 243 257 260 239 233 236 234 234 237 234 231 236 233 236 236
322 312 311 308 305 302 307 296 288 279 267 271 256 250 247 230 243 257 278 285 297 297 267 219 268 294 277 262 282 281 279 271 278 272 262 251 251 256 257 256 257 257 256 255 253 248 241 234 235 237 241 243 235 231 229 227 227 227 230 236 247 259 249 235 232 231 225 231 236 232 230 232 234 238
326 321 318 316 305 300 297 297 298 285 278 269 266 262 250 246 236 255 259 279 265 255 300 275 231 257 278 271 271 275 273 272 272 271 263 255 247 251 259 257 256 255 253 252 252 251 247 240 231 231 233 236 237 234 232 230 227 225 226 232 239 248 251 241 233 225 216 225 233 230 228 231 231 231
308 304 304 305 310 309 305 300 295 290 283 269 272 265 258 254 246 241 260 258 273 269 279 288 292 287 284 277 275 264 262 263 269 271 266 264 261 260 258 256 252 252 251 249 250 250 247 243 238 232 232 233 234 233 231 231 231 228 224 229 235 241 248 249 236 227 223 225 228 226 224 230 231 231
318 312 305 307 302 294 294 293 297 300 294 289 274 268 262 265 250 242 253 266 277 273 220 273 288 293 303 290 250 271 254 265 265 264 266 266 261 258 255 256 251 251 251 250 248 248 249 247 243 238 233 233 233 232 231 229 230 229 228 229 233 236 237 240 246 228 224 227 226 222 222 228 231 231
324 316 313 311 312 303 295 297 298 293 296 297 295 287 275 266 274 234 254 269 272 282 265 269 282 288 286 286 280 258 286 265 258 263 267 261 249 256 257 256 254 245 250 251 250 248 248 247 245 241 235 230 228 230 232 231 229 229 230 229 231 234 234 231 234 234 220 219 213 214 221 227 228 228
313 312 308 307 314 313 308 304 302 304 298 294 288 286 282 280 275 269 243 266 278 281 280 254 273 282 288 279 291 281 268 277 264 272 266 261 262 253 253 255 258 248 247 249 249 249 248 247 246 242 239 232 227 225 229 232 231 230 230 229 228 228 232 233 228 228 221 223 223 216 221 226 227 226
305 302 303 302 308 307 301 301 306 306 297 297 293 288 285 279 281 278 270 256 267 280 286 275 260 273 281 285 281 287 276 280 276 258 270 258 258 258 253 250 257 249 251 251 252 251 250 248 247 245 241 236 233 231 227 230 232 230 229 229 226 226 226 229 230 227 224 214 212 213 218 227 227 226
297 296 293 297 303 303 298 297 299 301 300 295 292 289 289 288 285 280 274 273 268 277 278 282 270 264 265 269 281 288 290 288 277 266 258 261 253 256 246 252 246 248 247 249 248 248 249 249 249 248 246 242 237 233 228 228 231 231 229 226 226 225 223 223 226 228 233 213 211 222 226 225 225 225
292 293 294 297 300 299 296 295 296 295 292 293 290 289 287 286 285 283 280 273 273 271 275 278 285 265 267 273 261 275 277 282 289 284 269 258 248 249 259 244 244 236 238 244 246 247 248 248 248 247 248 246 242 236 229 225 226 229 226 225 224 223 222 220 221 224 227 230 225 220 224 227 225 225
296 292 292 293 296 294 292 293 295 296 290 284 281 279 284 285 285 282 281 282 278 276 277 277 271 277 266 258 273 265 260 264 264 278 293 283 250 238 239 259 240 228 240 239 240 240 236 240 243 244 245 246 244 240 234 229 225 225 226 226 223 222 222 220 218 219 221 220 218 216 222 227 227 224
295 294 293 293 293 293 290 290 291 291 291 288 282 280 279 281 282 281 284 283 280 278 278 276 283 273 274 267 259 275 279 279 272 246 254 277 283 266 237 236 247 229 228 244 247 246 249 249 250 251 250 247 246 244 240 233 228 225 224 227 227 224 221 219 217 216 217 216 214 215 218 224 228 224
295 290 287 287 290 294 295 294 292 290 288 288 289 286 283 282 281 281 280 281 281 279 278 281 280 281 276 267 269 267 257 248 261 275 236 262 268 278 276 257 228 226 225 236 241 240 228 237 237 235 242 241 240 243 241 237 232 225 221 223 224 226 223 220 218 216 215 215 216 216 218 221 221 226
297 294 297 298 304 305 304 303 301 299 297 294 290 291 291 284 276 272 272 272 272 276 280 280 286 283 276 271 259 260 256 257 262 271 271 267 275 278 273 274 242 202 215 231 242 242 224 219 238 229 238 242 235 235 234 233 230 224 222 217 217 220 221 219 218 216 214 214 215 216 217 219 217 218
307 308 308 306 305 305 304 302 299 297 296 294 293 290 288 286 285 289 286 281 281 280 273 275 272 271 276 273 266 261 265 258 256 261 267 269 275 272 279 281 284 184 188 214 239 251 222 204 234 234 233 238 233 232 234 231 232 227 222 216 214 215 219 218 218 218 216 213 212 214 216 218 215 214
305 306 307 304 305 300 298 295 295 295 292 291 289 289 288 287 285 282 282 288 289 287 290 287 281 283 280 287 286 278 265 267 266 259 259 262 264 270 266 262 269 250 184 201 231 250 228 197 229 247 237 234 229 231 236 231 228 225 222 216 215 215 216 219 220 219 219 217 212 212 214 216 215 213
302 303 302 301 297 293 296 296 294 291 288 287 286 288 291 291 288 286 284 281 281 285 280 278 279 273 283 286 284 287 301 311 291 282 266 259 258 260 265 264 268 266 183 196 231 252 233 178 215 243 240 233 224 232 236 235 230 228 225 219 215 215 216 220 221 221 221 219 216 213 213 214 213 212
296 295 295 296 294 292 293 292 292 288 286 286 287 288 289 289 289 290 290 288 284 280 276 277 277 281 282 281 289 294 301 295 287 283 278 275 269 266 264 271 268 264 172 203 225 258 243 189 204 238 246 225 220 228 226 228 231 230 227 227 224 219 221 218 218 220 221 220 218 217 214 214 212 210
293 292 290 289 289 290 288 288 287 287 288 288 285 281 280 283 287 287 285 282 281 278 274 271 271 276 275 271 272 273 266 260 262 267 274 279 279 276 275 268 265 270 212 216 206 258 262 204 206 235 243 218 221 228 225 225 227 229 228 228 229 226 225 222 219 218 218 219 218 217 216 216 213 209
292 289 286 287 287 288 289 288 288 288 288 287 285 282 277 271 268 268 277 281 278 275 273 269 270 272 276 279 280 281 282 282 281 276 269 263 260 262 260 259 259 258 212 203 212 251 261 216 202 237 238 203 229 225 224 220 225 226 226 226 226 229 229 224 223 221 218 218 217 217 217 217 215 211
290 289 285 285 288 289 287 287 288 289 289 286 278 271 269 267 265 266 264 270 276 281 282 283 282 283 285 287 286 284 283 282 283 286 285 276 272 259 257 254 251 251 243 224 202 238 259 238 212 240 240 199 225 225 219 214 222 223 224 225 224 225 226 227 225 223 221 218 218 216 217 218 215 215
285 286 287 287 287 286 284 286 287 288 289 282 276 270 271 272 269 264 259 260 262 266 272 274 276 277 279 282 284 286 288 289 290 290 281 285 292 285 283 278 264 261 240 223 179 227 239 254 234 233 262 234 227 220 222 214 216 218 223 224 223 224 224 227 227 225 221 219 217 215 216 217 215 213
279 274 270 277 283 286 288 290 290 290 290 286 282 279 274 270 264 262 260 262 267 265 261 259 258 261 263 265 265 263 271 276 277 274 277 288 284 282 274 271 279 275 256 229 176 222 238 238 236 187 253 250 235 216 217 213 211 206 209 219 223 225 225 226 226 227 225 222 218 215 213 213 211 207
262 240 242 260 280 289 291 291 290 289 287 283 277 271 267 265 271 266 265 261 263 264 259 262 254 255 253 256 260 258 258 261 257 256 255 258 261 267 274 273 268 269 273 295 181 217 234 234 241 191 223 245 257 211 201 213 208 200 199 207 211 219 221 225 227 227 225 223 220 216 212 211 205 203
264 259 245 225 268 286 290 289 288 288 284 280 277 272 266 264 263 268 268 269 267 268 267 264 261 257 255 255 256 258 259 256 252 248 256 254 253 258 267 268 265 263 261 255 222 218 243 226 238 205 227 221 247 249 274 216 211 200 199 203 207 209 205 216 218 225 226 224 223 219 214 210 206 200
289 285 279 268 282 288 288 287 287 285 283 282 284 277 278 279 285 289 282 277 270 265 268 267 265 264 260 262 256 257 257 253 250 249 246 247 248 252 256 261 267 271 266 265 256 244 253 247 232 224 226 224 242 240 238 232 229 207 205 205 209 203 199 201 209 218 218 218 219 218 215 213 211 206
276 272 277 280 287 287 286 284 284 283 284 287 286 289 290 294 295 296 296 296 291 283 275 271 270 268 264 267 269 266 268 263 261 261 260 264 262 254 246 245 249 257 268 270 259 258 249 252 236 228 231 222 235 234 226 216 246 194 200 205 211 205 200 193 208 211 213 213 217 213 214 212 212 209
282 283 277 274 280 283 286 290 293 293 298 298 298 298 299 300 299 297 295 291 284 282 282 278 274 271 264 265 266 262 261 263 262 261 261 261 261 260 261 258 259 261 263 263 260 254 251 250 247 236 227 226 225 228 234 227 208 178 193 206 205 203 198 202 206 209 210 212 213 208 205 208 211 210
282 289 295 298 299 298 299 300 300 301 300 296 296 296 295 296 295 292 287 290 289 283 279 275 272 268 265 259 261 265 265 267 267 266 266 265 266 265 266 267 267 265 264 263 260 254 251 249 247 244 235 229 229 228 227 225 180 198 187 171 201 205 206 204 205 205 206 205 208 205 205 203 202 202
298 299 297 294 294 293 292 291 283 275 281 290 294 296 298 299 295 292 290 285 283 276 276 272 270 274 272 267 264 262 263 263 264 266 266 266 260 256 258 260 256 254 253 254 256 258 256 252 247 245 243 234 228 230 224 222 210 194 186 192 194 196 206 199 205 208 203 204 206 204 207 205 202 194
288 285 284 288 298 306 306 304 301 298 299 300 297 291 288 286 284 282 274 274 275 276 274 275 272 269 267 268 267 264 260 258 257 250 257 259 261 259 251 255 259 258 252 251 250 248 252 252 248 239 241 240 234 228 227 221 221 182 198 192 180 188 188 201 206 207 205 207 206 205 202 200 200 199
290 304 321 317 316 305 299 298 296 296 300 298 298 294 295 293 289 286 286 285 276 272 269 267 272 270 271 266 262 260 256 257 255 249 248 254 261 258 259 258 258 258 257 252 249 245 246 246 244 240 236 236 237 232 227 223 224 204 190 192 199 204 188 187 193 204 202 198 202 207 205 201 200 199
325 323 312 307 305 314 320 321 311 305 296 284 283 281 279 276 278 280 274 273 272 273 276 274 272 274 271 267 263 256 260 257 258 251 251 251 254 254 247 256 259 259 258 257 252 247 240 240 237 234 233 233 235 232 225 225 225 214 186 190 193 204 197 193 194 195 187 191 205 206 208 205 204 200
319 318 312 317 324 321 320 313 310 307 304 304 302 297 303 299 286 280 274 272 275 276 272 272 272 269 271 270 269 264 262 261 256 251 255 257 249 252 251 255 257 254 251 253 250 244 238 235 232 232 232 233 231 229 224 225 222 215 188 182 189 201 203 189 197 190 186 192 196 204 204 208 207 203
328 326 327 319 317 316 312 310 310 313 313 313 311 310 308 299 295 292 287 287 291 287 283 278 274 270 268 269 271 269 266 266 263 262 250 250 255 254 255 252 257 251 250 247 244 240 240 234 224 224 224 228 236 252 240 226 220 213 183 189 190 197 200 191 190 191 192 199 198 198 202 206 205 201
329 320 314 313 312 312 311 313 315 314 309 308 308 304 304 303 303 302 298 298 291 289 286 282 278 272 272 265 267 265 265 265 266 263 265 255 253 254 253 254 253 251 242 237 236 231 226 222 216 215 212 211 217 225 228 211 207 215 190 196 195 197 195 183 188 190 191 196 197 195 202 204 207 201
316 314 312 308 306 309 308 311 309 306 302 300 302 303 301 300 299 295 293 296 289 288 284 285 277 274 270 269 268 268 267 266 265 267 266 265 263 261 261 263 259 250 236 234 232 231 215 214 206 207 209 211 210 221 224 131 214 233 199 199 195 190 183 173 178 194 201 195 197 200 205 204 204 196
316 317 313 311 311 308 303 302 304 299 300 301 298 297 294 289 289 288 287 290 296 293 291 286 284 279 273 268 268 265 264 258 258 262 262 259 260 263 265 272 272 255 244 238 231 218 192 202 198 202 204 209 210 213 217 99 329 228 216 210 189 180 175 169 181 193 200 202 201 206 208 210 201 192
292 299 303 304 305 304 304 302 304 304 304 302 301 301 302 299 298 299 304 303 300 297 297 294 291 286 282 275 265 261 261 263 261 254 254 262 265 268 273 280 278 269 259 246 225 200 184 191 188 194 198 206 211 208 198 171 211 228 210 209 190 169 180 178 190 196 197 193 200 142 41 61 71 118
304 298 297 301 302 303 300 300 297 296 297 297 298 299 301 304 304 302 302 304 302 302 302 301 302 303 293 284 272 264 257 254 257 259 258 258 262 268 274 277 278 268 250 234 228 202 188 189 185 185 191 202 201 176 160 165 123 116 218 210 207 194 182 183 195 192 199 196 177 147 147 129 118 145
317 315 311 304 300 300 300 298 295 292 294 296 299 304 304 298 302 298 301 306 309 307 301 301 307 310 306 300 289 277 269 262 258 258 259 262 264 268 272 276 275 257 235 209 197 190 204 201 199 194 187 149 101 87 98 124 209 182 197 215 216 219 203 197 193 188 190 178 168 173 175 174 157 159
308 307 305 304 301 300 299 299 301 301 300 302 302 306 305 305 300 313 312 309 305 304 304 307 312 312 311 308 306 301 289 276 266 262 260 264 268 270 272 273 269 259 232 217 206 207 223 6 1 96 90 123 142 165 203 202 210 185 200 194 199 211 204 200 205 204 190 167 159 161 94 50 78 133
306 303 305 306 306 304 306 306 306 306 304 304 303 304 305 306 304 312 308 307 304 305 306 311 311 310 308 309 308 307 304 299 290 280 272 266 267 268 272 269 263 252 238 235 47 65 85 105 105 127 139 145 180 183 206 210 200 158 160 149 147 83 117 192 168 168 167 178 194 190 179 172 156 181
315 312 309 309 312 312 312 311 309 308 307 306 304 303 307 310 311 310 308 306 307 309 312 311 310 309 309 309 307 306 306 307 306 299 289 279 270 268 266 267 256 235 171 101 110 80 96 127 149 147 159 188 181 190 211 162 156 163 158 146 120 125 128 97 112 132 123 107 102 102 89 68 39 19
318 315 315 315 314 313 311 311 311 312 313 312 311 309 310 308 310 312 311 310 309 311 313 313 313 312 312 311 311 311 312 313 311 306 302 294 283 270 262 258 233 175 164 158 132 93 104 117 129 145 160 137 136 199 156 146 144 134 138 138 136 130 120 124 115 98 90 73 124 123 115 95 89 113